Powrót do katalogu

STARLINK-33796

AktywnyŁącznośćVLEO
NORAD 63515·PAYLOAD·🇺🇸 United States

Wystrzelony Apr 7, 2025 z Vandenberg Space Force Base

Loading…

Następne Przeloty (najbliższe 24 godziny)

TLE

ŚwieżeSource: CelesTrak SupGP

Epoka: Sep 15, 2026, 03:54 UTC

1 63515C 25071Y   26258.16298611  .00060112  00000+0  17756-2 0  2587
2 63515  53.1575 338.3192 0001364  96.6016 132.5803 15.34368730    12

Śledź STARLINK-33796 w czasie rzeczywistym z AllMySat

Download on the App Store